Time,TemperatureF,DewpointF,PressureIn,WindDirection,WindDirectionDegrees,WindSpeedMPH,WindSpeedGustMPH,Humidity,HourlyPrecipIn,Conditions,Clouds,dailyrainin,SoftwareType,DateUTC
2013-05-05 00:02:00,51.0,40.0,30.18,SE,134,2.0,6.0,65,0.00,,,0.00,,2013-05-05 04:02:00,
2013-05-05 00:12:00,51.0,40.0,30.18,SE,134,2.0,6.0,65,0.00,,,0.00,,2013-05-05 04:12:00,
2013-05-05 00:23:00,50.0,39.0,30.19,ESE,102,1.0,5.0,66,0.00,,,0.00,,2013-05-05 04:23:00,
2013-05-05 00:33:00,50.0,39.0,30.19,ESE,102,3.0,9.0,67,0.00,,,0.00,,2013-05-05 04:33:00,
2013-05-05 00:43:00,50.0,39.0,30.19,ESE,102,3.0,9.0,67,0.00,,,0.00,,2013-05-05 04:43:00,
2013-05-05 00:52:00,50.0,39.0,30.19,East,101,1.0,9.0,67,0.00,,,0.00,,2013-05-05 04:52:00,
2013-05-05 01:02:00,49.0,39.0,30.19,East,99,4.0,13.0,68,0.00,,,0.00,,2013-05-05 05:02:00,
2013-05-05 01:12:00,49.0,39.0,30.19,East,99,4.0,13.0,68,0.00,,,0.00,,2013-05-05 05:12:00,
2013-05-05 01:22:00,49.0,40.0,30.18,ESE,116,6.0,11.0,70,0.00,,,0.00,,2013-05-05 05:22:00,
2013-05-05 01:32:00,49.0,40.0,30.18,ESE,114,3.0,11.0,70,0.00,,,0.00,,2013-05-05 05:32:00,
2013-05-05 01:42:00,49.0,40.0,30.18,ESE,114,3.0,11.0,70,0.00,,,0.00,,2013-05-05 05:42:00,
2013-05-05 01:52:00,48.0,39.0,30.18,East,98,4.0,9.0,71,0.00,,,0.00,,2013-05-05 05:52:00,
2013-05-05 02:01:00,48.0,39.0,30.18,East,98,4.0,9.0,71,0.00,,,0.00,,2013-05-05 06:01:00,
2013-05-05 02:12:00,48.0,39.0,30.18,East,98,4.0,9.0,71,0.00,,,0.00,,2013-05-05 06:12:00,
2013-05-05 02:21:00,48.0,39.0,30.18,East,98,4.0,9.0,71,0.00,,,0.00,,2013-05-05 06:21:00,
2013-05-05 02:32:00,47.0,39.0,30.16,SW,227,1.0,4.0,73,0.00,,,0.00,,2013-05-05 06:32:00,
2013-05-05 02:42:00,47.0,39.0,30.16,SW,227,1.0,4.0,73,0.00,,,0.00,,2013-05-05 06:42:00,
2013-05-05 02:52:00,47.0,39.0,30.16,South,179,1.0,5.0,73,0.00,,,0.00,,2013-05-05 06:52:00,
2013-05-05 03:01:00,47.0,39.0,30.16,South,179,1.0,5.0,73,0.00,,,0.00,,2013-05-05 07:01:00,
2013-05-05 03:11:00,47.0,39.0,30.16,South,179,1.0,5.0,73,0.00,,,0.00,,2013-05-05 07:11:00,
2013-05-05 03:22:00,46.0,38.0,30.15,ESE,110,2.0,6.0,73,0.00,,,0.00,,2013-05-05 07:22:00,
2013-05-05 03:32:00,46.0,38.0,30.14,ESE,119,1.0,7.0,73,0.00,,,0.00,,2013-05-05 07:32:00,
2013-05-05 03:42:00,46.0,38.0,30.14,ESE,119,1.0,7.0,73,0.00,,,0.00,,2013-05-05 07:42:00,
2013-05-05 03:52:00,46.0,38.0,30.14,ESE,119,1.0,7.0,73,0.00,,,0.00,,2013-05-05 07:52:00,
2013-05-05 04:02:00,46.0,38.0,30.14,ESE,119,1.0,7.0,73,0.00,,,0.00,,2013-05-05 08:02:00,
2013-05-05 04:11:00,46.0,38.0,30.14,ESE,119,1.0,7.0,73,0.00,,,0.00,,2013-05-05 08:11:00,
2013-05-05 04:22:00,46.0,37.0,30.15,ESE,104,4.0,12.0,70,0.00,,,0.00,,2013-05-05 08:22:00,
2013-05-05 04:32:00,46.0,36.0,30.15,ESE,105,5.0,9.0,69,0.00,,,0.00,,2013-05-05 08:32:00,
2013-05-05 04:42:00,46.0,36.0,30.15,ESE,105,5.0,9.0,69,0.00,,,0.00,,2013-05-05 08:42:00,
2013-05-05 04:53:00,46.0,36.0,30.15,ESE,105,5.0,9.0,69,0.00,,,0.00,,2013-05-05 08:53:00,
2013-05-05 05:01:00,46.0,36.0,30.15,ESE,105,5.0,9.0,69,0.00,,,0.00,,2013-05-05 09:01:00,
2013-05-05 05:11:00,46.0,36.0,30.15,ESE,105,5.0,9.0,69,0.00,,,0.00,,2013-05-05 09:11:00,
2013-05-05 05:52:00,44.0,36.0,30.15,ESE,107,2.0,7.0,73,0.00,,,0.00,,2013-05-05 09:52:00,
2013-05-05 06:03:00,43.0,35.0,30.16,North,0,0.0,3.0,74,0.00,,,0.00,,2013-05-05 10:03:00,
2013-05-05 06:12:00,43.0,35.0,30.16,North,0,0.0,3.0,74,0.00,,,0.00,,2013-05-05 10:12:00,
2013-05-05 06:22:00,42.0,34.0,30.16,ESE,102,1.0,3.0,74,0.00,,,0.00,,2013-05-05 10:22:00,
2013-05-05 06:32:00,42.0,34.0,30.16,East,94,1.0,6.0,74,0.00,,,0.00,,2013-05-05 10:32:00,
2013-05-05 06:42:00,42.0,34.0,30.16,East,94,1.0,6.0,74,0.00,,,0.00,,2013-05-05 10:42:00,
2013-05-05 06:53:00,42.0,34.0,30.16,East,94,1.0,6.0,74,0.00,,,0.00,,2013-05-05 10:53:00,
2013-05-05 07:01:00,42.0,35.0,30.16,North,0,0.0,3.0,75,0.00,,,0.00,,2013-05-05 11:01:00,
2013-05-05 07:12:00,42.0,35.0,30.16,North,0,0.0,3.0,75,0.00,,,0.00,,2013-05-05 11:12:00,
2013-05-05 07:22:00,42.0,35.0,30.16,North,0,0.0,3.0,75,0.00,,,0.00,,2013-05-05 11:22:00,
2013-05-05 07:32:00,42.0,35.0,30.16,North,0,0.0,3.0,75,0.00,,,0.00,,2013-05-05 11:32:00,
2013-05-05 07:42:00,42.0,35.0,30.16,North,0,0.0,3.0,75,0.00,,,0.00,,2013-05-05 11:42:00,
2013-05-05 07:52:00,44.0,37.0,30.16,East,90,6.0,11.0,77,0.00,,,0.00,,2013-05-05 11:52:00,
2013-05-05 08:02:00,44.0,37.0,30.16,East,90,6.0,11.0,77,0.00,,,0.00,,2013-05-05 12:02:00,
2013-05-05 08:11:00,44.0,37.0,30.16,East,90,6.0,11.0,77,0.00,,,0.00,,2013-05-05 12:11:00,
2013-05-05 08:22:00,44.0,37.0,30.16,East,90,6.0,11.0,77,0.00,,,0.00,,2013-05-05 12:22:00,
2013-05-05 08:32:00,44.0,37.0,30.16,East,90,6.0,11.0,77,0.00,,,0.00,,2013-05-05 12:32:00,
2013-05-05 08:52:00,46.0,37.0,30.17,East,87,7.0,13.0,72,0.00,,,0.00,,2013-05-05 12:52:00,
2013-05-05 09:01:00,47.0,38.0,30.17,East,92,7.0,12.0,72,0.00,,,0.00,,2013-05-05 13:01:00,
2013-05-05 09:11:00,47.0,38.0,30.17,East,92,7.0,12.0,72,0.00,,,0.00,,2013-05-05 13:11:00,
2013-05-05 09:21:00,47.0,38.0,30.17,East,92,7.0,12.0,72,0.00,,,0.00,,2013-05-05 13:21:00,
2013-05-05 09:32:00,48.0,39.0,30.17,SE,127,5.0,13.0,70,0.00,,,0.00,,2013-05-05 13:32:00,
2013-05-05 09:42:00,48.0,39.0,30.17,SE,127,5.0,13.0,70,0.00,,,0.00,,2013-05-05 13:42:00,
2013-05-05 09:52:00,48.0,39.0,30.17,SE,127,5.0,13.0,70,0.00,,,0.00,,2013-05-05 13:52:00,
2013-05-05 10:02:00,48.0,38.0,30.17,ESE,111,5.0,11.0,69,0.00,,,0.00,,2013-05-05 14:02:00,
2013-05-05 10:11:00,50.0,39.0,30.16,East,94,7.0,12.0,65,0.00,,,0.00,,2013-05-05 14:11:00,
2013-05-05 10:21:00,50.0,39.0,30.16,East,94,7.0,12.0,65,0.00,,,0.00,,2013-05-05 14:21:00,
2013-05-05 10:32:00,50.0,39.0,30.16,East,94,7.0,12.0,65,0.00,,,0.00,,2013-05-05 14:32:00,
2013-05-05 10:42:00,50.0,39.0,30.16,East,94,7.0,12.0,65,0.00,,,0.00,,2013-05-05 14:42:00,
2013-05-05 10:52:00,51.0,37.0,30.16,East,94,6.0,11.0,58,0.00,,,0.00,,2013-05-05 14:52:00,
2013-05-05 11:02:00,53.0,38.0,30.16,ESE,116,4.0,11.0,57,0.00,,,0.00,,2013-05-05 15:02:00,
2013-05-05 11:11:00,53.0,38.0,30.16,ESE,116,4.0,11.0,57,0.00,,,0.00,,2013-05-05 15:11:00,
2013-05-05 11:21:00,53.0,37.0,30.16,SE,125,5.0,10.0,55,0.00,,,0.00,,2013-05-05 15:21:00,
2013-05-05 11:33:00,53.0,36.0,30.16,ESE,110,6.0,13.0,53,0.00,,,0.00,,2013-05-05 15:33:00,
2013-05-05 11:43:00,53.0,36.0,30.16,ESE,110,6.0,13.0,53,0.00,,,0.00,,2013-05-05 15:43:00,
2013-05-05 11:53:00,54.0,37.0,30.15,East,99,4.0,12.0,52,0.00,,,0.00,,2013-05-05 15:53:00,
2013-05-05 12:03:00,55.0,35.0,30.15,East,100,6.0,11.0,47,0.00,,,0.00,,2013-05-05 16:03:00,
2013-05-05 12:12:00,55.0,35.0,30.15,East,100,6.0,11.0,47,0.00,,,0.00,,2013-05-05 16:12:00,
2013-05-05 12:23:00,55.0,35.0,30.15,East,100,6.0,11.0,47,0.00,,,0.00,,2013-05-05 16:23:00,
2013-05-05 12:32:00,57.0,36.0,30.14,ESE,105,5.0,14.0,45,0.00,,,0.00,,2013-05-05 16:32:00,
2013-05-05 12:42:00,57.0,36.0,30.14,ESE,105,5.0,14.0,45,0.00,,,0.00,,2013-05-05 16:42:00,
2013-05-05 12:53:00,58.0,35.0,30.14,East,100,4.0,14.0,42,0.00,,,0.00,,2013-05-05 16:53:00,
2013-05-05 13:02:00,58.0,35.0,30.14,East,100,4.0,14.0,42,0.00,,,0.00,,2013-05-05 17:02:00,
2013-05-05 13:12:00,58.0,35.0,30.14,East,100,4.0,14.0,42,0.00,,,0.00,,2013-05-05 17:12:00,
2013-05-05 13:23:00,59.0,33.0,30.13,ESE,102,8.0,18.0,38,0.00,,,0.00,,2013-05-05 17:23:00,
2013-05-05 13:32:00,59.0,33.0,30.13,ESE,102,8.0,18.0,38,0.00,,,0.00,,2013-05-05 17:32:00,
2013-05-05 13:42:00,59.0,33.0,30.13,ESE,102,8.0,18.0,38,0.00,,,0.00,,2013-05-05 17:42:00,
2013-05-05 13:52:00,59.0,31.0,30.13,ESE,106,7.0,18.0,35,0.00,,,0.00,,2013-05-05 17:52:00,
2013-05-05 14:01:00,59.0,28.0,30.13,ESE,104,8.0,17.0,31,0.00,,,0.00,,2013-05-05 18:01:00,
2013-05-05 14:12:00,59.0,28.0,30.13,ESE,104,8.0,17.0,31,0.00,,,0.00,,2013-05-05 18:12:00,
2013-05-05 14:21:00,59.0,28.0,30.13,ESE,104,8.0,17.0,31,0.00,,,0.00,,2013-05-05 18:21:00,
2013-05-05 14:32:00,61.0,29.0,30.12,East,99,8.0,15.0,29,0.00,,,0.00,,2013-05-05 18:32:00,
2013-05-05 14:42:00,61.0,29.0,30.12,East,99,8.0,15.0,29,0.00,,,0.00,,2013-05-05 18:42:00,
2013-05-05 14:52:00,61.0,29.0,30.12,East,85,7.0,18.0,29,0.00,,,0.00,,2013-05-05 18:52:00,
2013-05-05 15:01:00,61.0,32.0,30.12,ESE,103,7.0,16.0,33,0.00,,,0.00,,2013-05-05 19:01:00,
2013-05-05 15:11:00,61.0,32.0,30.12,ESE,103,7.0,16.0,33,0.00,,,0.00,,2013-05-05 19:11:00,
2013-05-05 15:21:00,61.0,29.0,30.12,ESE,108,9.0,19.0,29,0.00,,,0.00,,2013-05-05 19:21:00,
2013-05-05 15:32:00,61.0,24.0,30.12,ESE,105,9.0,18.0,24,0.00,,,0.00,,2013-05-05 19:32:00,
2013-05-05 15:42:00,61.0,24.0,30.12,ESE,105,9.0,18.0,24,0.00,,,0.00,,2013-05-05 19:42:00,
2013-05-05 15:52:00,61.0,28.0,30.11,East,90,7.0,15.0,28,0.00,,,0.00,,2013-05-05 19:52:00,
2013-05-05 16:01:00,61.0,32.0,30.11,ESE,105,8.0,15.0,33,0.00,,,0.00,,2013-05-05 20:01:00,
2013-05-05 16:11:00,61.0,32.0,30.11,ESE,105,8.0,15.0,33,0.00,,,0.00,,2013-05-05 20:11:00,
2013-05-05 16:21:00,62.0,30.0,30.09,East,90,7.0,13.0,30,0.00,,,0.00,,2013-05-05 20:21:00,
2013-05-05 16:32:00,61.0,32.0,30.09,ESE,102,8.0,14.0,33,0.00,,,0.00,,2013-05-05 20:32:00,
2013-05-05 16:42:00,61.0,32.0,30.09,ESE,102,8.0,14.0,33,0.00,,,0.00,,2013-05-05 20:42:00,
2013-05-05 16:52:00,61.0,32.0,30.09,ESE,102,8.0,14.0,33,0.00,,,0.00,,2013-05-05 20:52:00,
2013-05-05 17:02:00,61.0,32.0,30.09,ESE,102,8.0,14.0,33,0.00,,,0.00,,2013-05-05 21:02:00,
2013-05-05 17:11:00,61.0,32.0,30.09,ESE,102,8.0,14.0,33,0.00,,,0.00,,2013-05-05 21:11:00,
2013-05-05 17:22:00,61.0,29.0,30.09,East,86,9.0,16.0,29,0.00,,,0.00,,2013-05-05 21:22:00,
2013-05-05 17:33:00,61.0,32.0,30.09,ESE,111,5.0,13.0,33,0.00,,,0.00,,2013-05-05 21:33:00,
2013-05-05 17:42:00,61.0,32.0,30.09,ESE,111,5.0,13.0,33,0.00,,,0.00,,2013-05-05 21:42:00,
2013-05-05 17:53:00,61.0,32.0,30.09,ESE,111,5.0,13.0,33,0.00,,,0.00,,2013-05-05 21:53:00,
2013-05-05 18:02:00,60.0,28.0,30.09,ESE,109,6.0,15.0,30,0.00,,,0.00,,2013-05-05 22:02:00,
2013-05-05 18:12:00,60.0,28.0,30.09,ESE,109,6.0,15.0,30,0.00,,,0.00,,2013-05-05 22:12:00,
2013-05-05 18:22:00,59.0,29.0,30.09,East,89,6.0,17.0,32,0.00,,,0.00,,2013-05-05 22:22:00,
2013-05-05 18:33:00,58.0,28.0,30.09,East,94,8.0,18.0,31,0.00,,,0.00,,2013-05-05 22:33:00,
2013-05-05 18:42:00,58.0,28.0,30.09,East,94,8.0,18.0,31,0.00,,,0.00,,2013-05-05 22:42:00,
2013-05-05 18:52:00,57.0,30.0,30.10,ESE,107,5.0,15.0,35,0.00,,,0.00,,2013-05-05 22:52:00,
2013-05-05 19:02:00,57.0,31.0,30.11,ESE,106,6.0,14.0,37,0.00,,,0.00,,2013-05-05 23:02:00,
2013-05-05 19:12:00,57.0,31.0,30.11,ESE,106,6.0,14.0,37,0.00,,,0.00,,2013-05-05 23:12:00,
2013-05-05 19:21:00,56.0,30.0,30.11,East,95,5.0,10.0,37,0.00,,,0.00,,2013-05-05 23:21:00,
2013-05-05 19:32:00,55.0,31.0,30.11,East,100,5.0,10.0,39,0.00,,,0.00,,2013-05-05 23:32:00,
2013-05-05 19:42:00,55.0,31.0,30.11,East,100,5.0,10.0,39,0.00,,,0.00,,2013-05-05 23:42:00,
2013-05-05 19:52:00,55.0,31.0,30.11,ESE,105,4.0,11.0,40,0.00,,,0.00,,2013-05-05 23:52:00,
2013-05-05 20:01:00,54.0,31.0,30.12,East,100,6.0,13.0,42,0.00,,,0.00,,2013-05-06 00:01:00,
2013-05-05 20:11:00,54.0,31.0,30.12,East,100,6.0,13.0,42,0.00,,,0.00,,2013-05-06 00:11:00,
2013-05-05 20:21:00,54.0,32.0,30.11,East,96,5.0,12.0,43,0.00,,,0.00,,2013-05-06 00:21:00,
2013-05-05 20:32:00,53.0,33.0,30.12,ESE,116,2.0,9.0,46,0.00,,,0.00,,2013-05-06 00:32:00,
2013-05-05 20:41:00,53.0,33.0,30.12,ESE,116,2.0,9.0,46,0.00,,,0.00,,2013-05-06 00:41:00,
2013-05-05 20:52:00,53.0,34.0,30.12,East,82,2.0,6.0,48,0.00,,,0.00,,2013-05-06 00:52:00,
2013-05-05 21:01:00,52.0,34.0,30.12,ENE,72,1.0,4.0,50,0.00,,,0.00,,2013-05-06 01:01:00,
2013-05-05 21:11:00,52.0,34.0,30.12,ENE,72,1.0,4.0,50,0.00,,,0.00,,2013-05-06 01:11:00,
2013-05-05 21:21:00,52.0,35.0,30.12,North,0,0.0,3.0,52,0.00,,,0.00,,2013-05-06 01:21:00,
2013-05-05 21:32:00,52.0,35.0,30.13,East,79,1.0,5.0,53,0.00,,,0.00,,2013-05-06 01:32:00,
2013-05-05 21:42:00,52.0,35.0,30.13,East,79,1.0,5.0,53,0.00,,,0.00,,2013-05-06 01:42:00,
2013-05-05 21:52:00,51.0,35.0,30.12,East,79,2.0,8.0,54,0.00,,,0.00,,2013-05-06 01:52:00,
2013-05-05 22:02:00,51.0,35.0,30.12,East,79,2.0,8.0,54,0.00,,,0.00,,2013-05-06 02:02:00,
2013-05-05 22:12:00,51.0,35.0,30.12,East,79,2.0,8.0,54,0.00,,,0.00,,2013-05-06 02:12:00,
2013-05-05 22:21:00,50.0,35.0,30.13,North,0,0.0,6.0,57,0.00,,,0.00,,2013-05-06 02:21:00,
2013-05-05 22:32:00,50.0,36.0,30.13,East,96,4.0,9.0,59,0.00,,,0.00,,2013-05-06 02:32:00,
2013-05-05 22:42:00,50.0,36.0,30.13,East,96,4.0,9.0,59,0.00,,,0.00,,2013-05-06 02:42:00,
2013-05-05 22:52:00,50.0,36.0,30.13,East,80,1.0,7.0,59,0.00,,,0.00,,2013-05-06 02:52:00,
2013-05-05 23:02:00,49.0,37.0,30.13,East,99,2.0,9.0,62,0.00,,,0.00,,2013-05-06 03:02:00,
2013-05-05 23:11:00,49.0,37.0,30.13,East,99,2.0,9.0,62,0.00,,,0.00,,2013-05-06 03:11:00,
2013-05-05 23:22:00,49.0,37.0,30.13,ESE,115,1.0,13.0,63,0.00,,,0.00,,2013-05-06 03:22:00,
2013-05-05 23:33:00,49.0,37.0,30.14,ESE,107,3.0,9.0,63,0.00,,,0.00,,2013-05-06 03:33:00,
2013-05-05 23:42:00,49.0,37.0,30.14,ESE,107,3.0,9.0,63,0.00,,,0.00,,2013-05-06 03:42:00,
2013-05-05 23:52:00,48.0,37.0,30.13,East,100,5.0,10.0,66,0.00,,,0.00,,2013-05-06 03:52:00,